Location: Vancouver
(49.2500°N, 123.1330°W)
Time: 07:01:05
(UTC-08:00)

S-56A Canister/Altair - Visible Passes

Search period start: 17 January 2017 00:00
Search period end: 27 January 2017 00:00
Orbit: 639 x 2495 km, 38.9° (Epoch: 15 January)

Date Brightness Start Highest point End Pass type
(mag) Time Alt. Az. Time Alt. Az. Time Alt. Az.
17 Jan 11.0 02:58:30 21° SSE 03:00:04 21° SE 03:08:09 10° E visible
17 Jan 10.3 04:55:59 19° SW 05:04:27 39° SSE 05:13:24 10° E visible
17 Jan 9.9 06:57:37 10° WSW 07:08:56 46° S 07:16:40 10° ESE visible
18 Jan 11.1 02:28:15 20° SE 02:28:15 20° SE 02:35:14 10° E visible
18 Jan 10.3 04:25:43 27° SSW 04:31:37 38° SSE 04:41:01 10° E visible
18 Jan 9.9 06:24:16 10° WSW 06:36:14 48° S 06:44:32 10° ESE visible
19 Jan 11.3 01:57:52 16° ESE 01:57:52 16° ESE 02:02:07 10° ESE visible
19 Jan 10.4 03:55:20 33° S 03:58:44 37° SSE 04:08:33 10° E visible
19 Jan 9.9 05:52:48 15° WSW 06:03:28 48° S 06:12:19 10° ESE visible
20 Jan 11.5 01:27:22 12° ESE 01:27:22 12° ESE 01:28:46 10° ESE visible
20 Jan 10.5 03:24:49 35° SSE 03:25:48 35° SSE 03:36:01 10° E visible
20 Jan 10.0 05:22:16 23° SW 05:30:38 49° S 05:40:03 10° ESE visible
20 Jan 9.9 07:23:53 10° W 07:35:03 43° SSW 07:42:47 10° SE visible
21 Jan 10.6 02:54:13 33° SE 02:54:13 33° SE 03:03:22 10° E visible
21 Jan 10.0 04:51:40 32° SW 04:57:45 49° S 05:07:43 10° ESE visible
21 Jan 9.9 06:50:27 10° W 07:02:23 46° SSW 07:10:43 10° SE visible
22 Jan 10.8 02:23:32 29° SE 02:23:32 29° SE 02:30:37 10° E visible
22 Jan 10.1 04:20:59 41° SSW 04:24:47 49° S 04:35:19 10° E visible
22 Jan 9.9 06:18:25 14° WSW 06:29:38 48° SSW 06:38:34 10° ESE visible
23 Jan 11.1 01:52:48 23° ESE 01:52:48 23° ESE 01:57:45 10° E visible
23 Jan 10.1 03:50:14 46° S 03:51:48 48° SSE 04:02:50 10° E visible
23 Jan 9.9 05:47:40 21° WSW 05:56:50 51° S 06:06:22 10° ESE visible
24 Jan 11.3 01:22:01 17° ESE 01:22:01 17° ESE 01:24:45 10° E visible
24 Jan 10.2 03:19:27 46° SSE 03:19:27 46° SSE 03:30:16 10° E visible
24 Jan 9.9 05:16:53 30° WSW 05:23:56 52° S 05:34:05 10° ESE visible
24 Jan 10.2 07:17:00 10° W 07:28:11 36° SSW 07:36:18 10° SSE visible
25 Jan 11.6 00:51:11 11° E 00:51:11 11° E 00:51:37 10° E visible
25 Jan 10.4 02:48:37 41° SE 02:48:37 41° SE 02:57:36 10° E visible
25 Jan 9.9 04:46:03 40° SW 04:50:57 53° S 05:01:44 10° ESE visible
25 Jan 10.1 06:43:30 10° W 06:55:31 40° SSW 07:04:17 10° SE visible
26 Jan 10.7 02:17:46 34° ESE 02:17:46 34° ESE 02:24:52 10° E visible
26 Jan 10.0 04:15:12 49° SSW 04:17:56 54° S 04:29:17 10° ESE visible
26 Jan 10.1 06:12:38 17° W 06:22:46 43° SSW 06:32:12 10° SE visible
